OpenBCM V1.13 (Linux)

Packet Radio Mailbox

DB0FHN

[JN59NK Nuernberg]

 Login: GUEST





  
UA9FBV > KEPS     11.12.04 08:06l 165 Lines 7769 Bytes #999 (0) @ AMSAT
BID : ORB04345.N
Read: GUEST DL7NDR
Subj: 2Line Orbital Elements 04345.AMSAT
Path: DB0FHN<DB0MRW<DB0ERF<DB0FBB<DB0BI<DB0NOS<DB0EA<DB0RES<ER3KAZ<R3CR<
      UR6IUG<UA9FBV
Sent: 041211/0600Z @:UA9FBV.PRM.RUS.AS #:12661 [Perm] GATEWAY $:ORB04345.N
From: UA9FBV@UA9FBV.PRM.RUS.AS
To  : KEPS@AMSAT


HR AMSAT ORBITAL ELEMENTS FOR AMATEUR SATELLITES IN NASA FORMAT
FROM WA5QGD FORT WORTH,TX December 10, 2004
SEND SUBSCRIBE/UNSUBSCRIBE TO majordomo@amsat.org ONLY
BID: ORB04345.N

DECODE 2-LINE ELSETS WITH THE FOLLOWING KEY:
1 AAAAAU 00  0  0 BBBBB.BBBBBBBB  .CCCCCCCC  00000-0  00000-0 0  DDDZ
2 AAAAA EEE.EEEE FFF.FFFF GGGGGGG HHH.HHHH III.IIII JJ.JJJJJJJJKKKKKZ
KEY: A-CATALOGNUM B-EPOCHTIME C-DECAY D-ELSETNUM E-INCLINATION F-RAAN
G-ECCENTRICITY H-ARGPERIGEE I-MNANOM J-MNMOTION K-ORBITNUM Z-CHECKSUM

TO ALL RADIO AMATEURS BT

AO-07
1 07530U 74089B   04344.69150514 -.00000029  00000-0  10000-3 0 03618
2 07530 101.6589 028.5195 0012026 241.7146 118.2712 12.53569865375909
AO-10
1 14129U 83058B   04344.90066497  .00000076  00000-0  10000-3 0  1299
2 14129  26.8668  57.4735 6031876 147.5031 270.7588  2.05868634161634
UO-11
1 14781U 84021B   04345.27436040  .00000444  00000-0  67417-4 0  6570
2 14781  98.1910 333.1778 0008160 243.1925 116.8466 14.79100129113870
RS-10/11
1 18129U 87054A   04345.53747599  .00000027  00000-0  12712-4 0  5598
2 18129  82.9266  17.6836 0010952 183.7800 176.3280 13.72750093875195
FO-20
1 20480U 90013C   04345.64562648 -.00000074  00000-0 -84989-4 0  7649
2 20480  99.0176 189.7120 0539964 307.0750  48.2129 12.83343379695317
RS-12/13
1 21089U 91007A   04345.11428613  .00000037  00000-0  23648-4 0  7837
2 21089  82.9237  51.2093 0027604 245.4982 114.3296 13.74444736694521
RS-15
1 23439U 94085A   04344.69301388 -.00000039  00000-0  10597-3 0 08414
2 23439 064.8192 054.0089 0158394 349.7509 010.0200 11.27550439410023
FO-29
1 24278U 96046B   04345.77327237  .00000007  00000-0  46651-4 0  8444
2 24278  98.5736  54.5341 0350174 304.5499  52.3047 13.52906294410714
SO-33
1 25509U 98061B   04345.42630559  .00000269  00000-0  41104-4 0  2551
2 25509  31.4339  19.4847 0355646 316.1468  41.1449 14.27938102319820
AO-40
1 26609U 00072B   04343.03021472 -.00000037  00000-0  10000-3 0  4670
2 26609   9.1790 331.2071 7959964 345.7402   0.7974  1.25586517 18851
UO-14
1 20437U 90005B   04344.61932009  .00000120  00000-0  60510-4 0  6586
2 20437  98.2010 358.9006 0011604  41.8899 318.3157 14.31387444776917
AO-16
1 20439U 90005D   04344.65859110  .00000025  00000-0  24524-4 0  3477
2 20439  98.2267  13.8698 0011991  48.7336 311.4875 14.31647047776973
WO-18
1 20441U 90005F   04345.86116590  .00000065  00000-0  39668-4 0  5383
2 20441  98.2402  19.1803 0012534  46.5090 313.7121 14.31722410777205
LO-19
1 20442U 90005G   04345.13311876  .00000051  00000-0  34188-4 0  2731
2 20442  98.2489  22.6972 0012908  46.4395 313.7864 14.31894192777165
UO-22
1 21575U 91050B   04345.55160775  .00000023  00000-0  20710-4 0  2753
2 21575  98.2184 312.2833 0006485 302.4852  57.5700 14.39443522703363
KO-23
1 22077U 92052B   04345.84952473 -.00000037  00000-0  10000-3 0  3353
2 22077  66.0875 180.8772 0012784 300.4068  59.5684 12.86427932579369
AO-27
1 22825U 93061C   04345.08945370 -.00000002  00000-0  15399-4 0    96
2 22825  98.2458 344.6886 0009547 101.9373 258.2881 14.29102213584214
IO-26
1 22826U 93061D   04345.57275025  .00000056  00000-0  37769-4 0  6789
2 22826  98.2413 346.4349 0009872  97.4694 262.7610 14.29340951584343
KO-25
1 22828U 93061F   04344.63170616  .00000107  00000-0  57567-4 0 09426
2 22828 098.2355 345.7712 0011032 081.5417 278.7013 14.29658384552435
TO-31
1 25396U 98043C   04345.42355494 -.00000043  00000-0  00000 0 0  1237
2 25396  98.5565  52.1193 0002763  32.1259 328.0090 14.23648297333553
GO-32
1 25397U 98043D   04345.14856237  .00000098  00000-0  62244-4 0  6213
2 25397  98.5485  49.7222 0001619  60.5228 299.6134 14.23063033333449
UO-36
1 25693U 99021A   04345.82375566  .00000052  00000-0  26636-4 0  7211
2 25693  64.5560 142.1570 0041766 235.9520 123.7621 14.78433460303977
SO-41
1 26545U 00057A   04345.86280039  .00000363  00000-0  66590-4 0  9482
2 26545  64.5559 157.7089 0029374 337.7891  22.1878 14.79957112227058
MO-46
1 26548U 00057D   04345.39542819  .00000617  00000-0  94231-4 0   509
2 26548  64.5543 144.1091 0028880 325.1343  34.7884 14.82540112227295
SO-42
1 26549U 00057E   04344.62843854  .00000209  00000-0  47534-4 0    60
2 26549  64.5551 169.1036 0029578 347.8884  12.1503 14.78842774226726
NO-44
1 26931U 01043C   04345.11498125  .00000102  00000-0  72553-4 0  9186
2 26931  67.0545 354.7406 0007340 268.4596  91.5635 14.29346736166741
AO-49
1 27605U 02058A   04345.33229493  .00000300  00000-0  66952-4 0  6066
2 27605  64.5602 349.5102 0085417 276.9557  82.1820 14.71996860106059
SO-50
1 27607U 02058C   04344.55147500  .00000427  00000-0  87968-4 0  5888
2 27607  64.5599 356.4733 0086409 276.0060  83.1199 14.70822108105843
AO-51
1 28375U 04025K   04345.18716836  .00000055  00000-0  29452-4 0  1293
2 28375  98.2417  48.9836 0085249  81.7612 279.3225 14.40417945 23407
NOAA-10
1 16969U 86073A   04345.25532517  .00000189  00000-0  95573-4 0  5099
2 16969  98.7619 344.5983 0012006 326.9879  33.0559 14.27230540948141
NOAA-11
1 19531U 88089A   04345.32181017 -.00000159  00000-0 -59781-4 0  3671
2 19531  98.8586  67.9754 0012418 123.0666 237.1721 14.14742010836221
NOAA-12
1 21263U 91032A   04345.43008928  .00000045  00000-0  37562-4 0  8556
2 21263  98.6860 331.4294 0011913 257.8218 102.1627 14.25436474705356
MET-3/5
1 21655U 91056A   04345.84787922  .00000051  00000-0  10000-3 0  6901
2 21655  82.5548 291.7027 0013215 350.0128  10.0715 13.16996225640527
MET-2/21
1 22782U 93055A   04345.30650870 -.00000116  00000-0 -11861-3 0   764
2 22782  82.5517  50.8183 0020904 293.8723  66.0259 13.83575735569459
OKEAN-4
1 23317U 94066A   04344.83899827  .00000636  00000-0  76888-4 0  4935
2 23317  82.5407  73.9189 0023588  43.0442 317.2622 14.81998579547868
NOAA-14
1 23455U 94089A   04345.36836936  .00000403  00000-0  23831-3 0  3899
2 23455  99.1177  24.3649 0009515 167.2439 192.8975 14.13519173512829
SICH-1
1 23657U 95046A   04344.80022992  .00000504  00000-0  61666-4 0  2962
2 23657  82.5298 214.7648 0025231  27.8633 332.3926 14.81020644499924
NOAA-15
1 25338U 98030A   04345.47488005  .00000078  00000-0  52184-4 0  8362
2 25338  98.5166 353.5374 0010367 185.4983 174.6088 14.24473772341882
RESURS
1 25394U 98043A   04345.55844211  .00000039  00000-0  35602-4 0  9670
2 25394  98.5635  53.9260 0001567  25.2492 334.8764 14.24040201333607
FENGYUN1
1 25730U 99025A   04345.40403805 -.00000115  00000-0 -40270-4 0  2979
2 25730  98.6056 348.7727 0013506 279.9333  80.0316 14.11784899287874
OKEAN-0
1 25860U 99039A   04344.80554250  .00000232  00000-0  43242-4 0  3007
2 25860  97.7775  12.8322 0002028  94.7415 265.4021 14.73167626290122
NOAA-16
1 26536U 00055A   04345.47460338  .00000068  00000-0  61688-4 0  1419
2 26536  98.9877 297.1050 0009843 238.7126 121.3066 14.12185905217420
NOAA-17
1 27453U 02032A   04345.44058163  .00000294  00000-0  14823-3 0  1601
2 27453  98.6832  55.6330 0011286 239.3684 120.6394 14.23607074127980
HUBBLE
1 20580U 90037B   04345.24852258  .00001042  00000-0  69834-4 0  2248
2 20580  28.4663  59.6441 0003723  65.9355 294.1626 14.99484433601852
UARS
1 21701U 91063B   04345.79961671  .00000472  00000-0  52815-4 0  3309
2 21701  56.9798 233.6479 0005207  81.2801 278.8824 15.03708573725153
PO-34
1 25520U 98064B   04345.78529921  .00001219  00000-0  51955-4 0   690
2 25520  28.4595 131.5824 0005335 333.4049  26.6283 15.15965643337965
ISS
1 25544U 98067A   04345.93660348  .00016609  00000-0  13301-3 0  3363
2 25544  51.6374 143.5907 0004324  97.7995  40.2560 15.71197684346083
OO-38
1 26063U 00004C   04344.56999516  .00000111  00000-0  58588-4 0  2305
2 26063 100.2243 163.7184 0036771 228.1747 131.6291 14.35688849255085
NO-45
1 26932U 01043D   04345.16789124  .00000044  00000-0  49422-4 0  9133
2 26932  67.0608 354.2518 0007877 282.3647  77.6498 14.29459914166787


Read previous mail | Read next mail


 13.09.2026 17:57:10lGo back Go up